Year,Month,Day,Hour,Minute,Value (Times are PST for temperature in C)
2016,04,10,00,00,9.80
2016,04,10,00,01,9.70
2016,04,10,00,02,9.70
2016,04,10,00,03,9.70
2016,04,10,00,04,9.70
2016,04,10,00,05,9.70
2016,04,10,00,06,9.70
2016,04,10,00,07,9.70
2016,04,10,00,08,9.70
2016,04,10,00,09,9.70
2016,04,10,00,10,9.70
2016,04,10,00,11,9.70
2016,04,10,00,12,9.60
2016,04,10,00,13,9.60
2016,04,10,00,14,9.60
2016,04,10,00,15,9.60
2016,04,10,00,16,9.60
2016,04,10,00,17,9.50
2016,04,10,00,18,9.50
2016,04,10,00,19,9.50
2016,04,10,00,20,9.50
2016,04,10,00,21,9.50
2016,04,10,00,22,9.40
2016,04,10,00,23,9.40
2016,04,10,00,24,9.40
2016,04,10,00,25,9.40
2016,04,10,00,26,9.40
2016,04,10,00,27,9.40
2016,04,10,00,28,9.30
2016,04,10,00,29,9.30
2016,04,10,00,30,9.30
2016,04,10,00,31,9.30
2016,04,10,00,32,9.30
2016,04,10,00,33,9.30
2016,04,10,00,34,9.30
2016,04,10,00,35,9.30
2016,04,10,00,36,9.30
2016,04,10,00,37,9.20
2016,04,10,00,38,9.20
2016,04,10,00,39,9.20
2016,04,10,00,40,9.20
2016,04,10,00,41,9.20
2016,04,10,00,42,9.20
2016,04,10,00,43,9.20
2016,04,10,00,44,9.20
2016,04,10,00,45,9.20
2016,04,10,00,46,9.20
2016,04,10,00,47,9.20
2016,04,10,00,48,9.10
2016,04,10,00,49,9.10
2016,04,10,00,50,9.10
2016,04,10,00,51,9.00
2016,04,10,00,52,9.00
2016,04,10,00,53,9.00
2016,04,10,00,54,9.00
2016,04,10,00,55,9.00
2016,04,10,00,56,9.00
2016,04,10,00,57,8.90
2016,04,10,00,58,8.90
2016,04,10,00,59,8.90
2016,04,10,01,00,8.90
2016,04,10,01,01,8.90
2016,04,10,01,02,8.90
2016,04,10,01,03,8.90
2016,04,10,01,04,8.90
2016,04,10,01,05,8.90
2016,04,10,01,06,8.90
2016,04,10,01,07,8.80
2016,04,10,01,08,8.80
2016,04,10,01,09,8.80
2016,04,10,01,10,8.80
2016,04,10,01,11,8.70
2016,04,10,01,12,8.70
2016,04,10,01,13,8.60
2016,04,10,01,14,8.60
2016,04,10,01,15,8.60
2016,04,10,01,16,8.50
2016,04,10,01,17,8.40
2016,04,10,01,18,8.40
2016,04,10,01,19,8.30
2016,04,10,01,20,8.30
2016,04,10,01,21,8.30
2016,04,10,01,22,8.30
2016,04,10,01,23,8.30
2016,04,10,01,24,8.20
2016,04,10,01,25,8.20
2016,04,10,01,26,8.20
2016,04,10,01,27,8.20
2016,04,10,01,28,8.20
2016,04,10,01,29,8.20
2016,04,10,01,30,8.10
2016,04,10,01,31,8.10
2016,04,10,01,32,8.10
2016,04,10,01,33,8.10
2016,04,10,01,34,8.10
2016,04,10,01,35,8.10
2016,04,10,01,36,8.10
2016,04,10,01,37,8.10
2016,04,10,01,38,8.00
2016,04,10,01,39,8.00
2016,04,10,01,40,8.00
2016,04,10,01,41,8.00
2016,04,10,01,42,7.90
2016,04,10,01,43,7.90
2016,04,10,01,44,7.90
2016,04,10,01,45,7.90
2016,04,10,01,46,7.80
2016,04,10,01,47,7.80
2016,04,10,01,48,7.80
2016,04,10,01,49,7.80
2016,04,10,01,50,7.90
2016,04,10,01,51,7.90
2016,04,10,01,52,7.90
2016,04,10,01,53,7.90
2016,04,10,01,54,7.90
2016,04,10,01,55,7.90
2016,04,10,01,56,7.90
2016,04,10,01,57,7.90
2016,04,10,01,58,7.80
2016,04,10,01,59,7.80
2016,04,10,02,00,7.80
2016,04,10,02,01,7.80
2016,04,10,02,02,7.80
2016,04,10,02,03,7.80
2016,04,10,02,04,7.80
2016,04,10,02,05,7.80
2016,04,10,02,06,7.80
2016,04,10,02,07,7.80
2016,04,10,02,08,7.80
2016,04,10,02,09,7.80
2016,04,10,02,10,7.80
2016,04,10,02,11,7.80
2016,04,10,02,12,7.70
2016,04,10,02,13,7.70
2016,04,10,02,14,7.70
2016,04,10,02,15,7.70
2016,04,10,02,16,7.70
2016,04,10,02,17,7.70
2016,04,10,02,18,7.80
2016,04,10,02,19,7.80
2016,04,10,02,20,7.80
2016,04,10,02,21,7.80
2016,04,10,02,22,7.80
2016,04,10,02,23,7.80
2016,04,10,02,24,7.80
2016,04,10,02,25,7.80
2016,04,10,02,26,7.80
2016,04,10,02,27,7.80
2016,04,10,02,28,7.80
2016,04,10,02,29,7.80
2016,04,10,02,30,7.80
2016,04,10,02,31,7.70
2016,04,10,02,32,7.70
2016,04,10,02,33,7.70
2016,04,10,02,34,7.70
2016,04,10,02,35,7.70
2016,04,10,02,36,7.70
2016,04,10,02,37,7.70
2016,04,10,02,38,7.70
2016,04,10,02,39,7.70
2016,04,10,02,40,7.60
2016,04,10,02,41,7.60
2016,04,10,02,42,7.60
2016,04,10,02,43,7.60
2016,04,10,02,44,7.60
2016,04,10,02,45,7.60
2016,04,10,02,46,7.60
2016,04,10,02,47,7.60
2016,04,10,02,48,7.60
2016,04,10,02,49,7.70
2016,04,10,02,50,7.70
2016,04,10,02,51,7.70
2016,04,10,02,52,7.70
2016,04,10,02,53,7.70
2016,04,10,02,54,7.80
2016,04,10,02,55,7.80
2016,04,10,02,56,7.80
2016,04,10,02,57,7.80
2016,04,10,02,58,7.80
2016,04,10,02,59,7.90
2016,04,10,03,00,7.90
2016,04,10,03,01,7.90
2016,04,10,03,02,7.90
2016,04,10,03,03,7.90
2016,04,10,03,04,7.90
2016,04,10,03,05,8.00
2016,04,10,03,06,8.00
2016,04,10,03,07,8.00
2016,04,10,03,08,8.00
2016,04,10,03,09,8.10
2016,04,10,03,10,8.10
2016,04,10,03,11,8.10
2016,04,10,03,12,8.10
2016,04,10,03,13,8.10
2016,04,10,03,14,8.10
2016,04,10,03,15,8.20
2016,04,10,03,16,8.20
2016,04,10,03,17,8.20
2016,04,10,03,18,8.20
2016,04,10,03,19,8.20
2016,04,10,03,20,8.20
2016,04,10,03,21,8.20
2016,04,10,03,22,8.20
2016,04,10,03,23,8.20
2016,04,10,03,24,8.20
2016,04,10,03,25,8.20
2016,04,10,03,26,8.30
2016,04,10,03,27,8.30
2016,04,10,03,28,8.30
2016,04,10,03,29,8.30
2016,04,10,03,30,8.30
2016,04,10,03,31,8.30
2016,04,10,03,32,8.30
2016,04,10,03,33,8.30
2016,04,10,03,34,8.30
2016,04,10,03,35,8.30
2016,04,10,03,36,8.30
2016,04,10,03,37,8.30
2016,04,10,03,38,8.40
2016,04,10,03,39,8.40
2016,04,10,03,40,8.40
2016,04,10,03,41,8.40
2016,04,10,03,42,8.40
2016,04,10,03,43,8.40
2016,04,10,03,44,8.50
2016,04,10,03,45,8.50
2016,04,10,03,46,8.50
2016,04,10,03,47,8.50
2016,04,10,03,48,8.50
2016,04,10,03,49,8.50
2016,04,10,03,50,8.50
2016,04,10,03,51,8.60
2016,04,10,03,52,8.60
2016,04,10,03,53,8.60
2016,04,10,03,54,8.60
2016,04,10,03,55,8.60
2016,04,10,03,56,8.60
2016,04,10,03,57,8.60
2016,04,10,03,58,8.60
2016,04,10,03,59,8.60
2016,04,10,04,00,8.60
2016,04,10,04,01,8.60
2016,04,10,04,02,8.60
2016,04,10,04,03,8.60
2016,04,10,04,04,8.60
2016,04,10,04,05,8.60
2016,04,10,04,06,8.60
2016,04,10,04,07,8.60
2016,04,10,04,08,8.60
2016,04,10,04,09,8.60
2016,04,10,04,10,8.60
2016,04,10,04,11,8.60
2016,04,10,04,12,8.60
2016,04,10,04,13,8.70
2016,04,10,04,14,8.70
2016,04,10,04,15,8.70
2016,04,10,04,16,8.70
2016,04,10,04,17,8.70
2016,04,10,04,18,8.70
2016,04,10,04,19,8.70
2016,04,10,04,20,8.70
2016,04,10,04,21,8.70
2016,04,10,04,22,8.70
2016,04,10,04,23,8.70
2016,04,10,04,24,8.80
2016,04,10,04,25,8.70
2016,04,10,04,26,8.80
2016,04,10,04,27,8.80
2016,04,10,04,28,8.80
2016,04,10,04,29,8.80
2016,04,10,04,30,8.80
2016,04,10,04,31,8.80
2016,04,10,04,32,8.80
2016,04,10,04,33,8.80
2016,04,10,04,34,8.80
2016,04,10,04,35,8.80
2016,04,10,04,36,8.80
2016,04,10,04,37,8.90
2016,04,10,04,38,8.90
2016,04,10,04,39,8.90
2016,04,10,04,40,8.90
2016,04,10,04,41,8.90
2016,04,10,04,42,8.90
2016,04,10,04,43,8.90
2016,04,10,04,44,8.90
2016,04,10,04,45,9.00
2016,04,10,04,46,9.00
2016,04,10,04,47,9.00
2016,04,10,04,48,9.00
2016,04,10,04,49,9.00
2016,04,10,04,50,9.10
2016,04,10,04,51,9.10
2016,04,10,04,52,9.10
2016,04,10,04,53,9.10
2016,04,10,04,54,9.10
2016,04,10,04,55,9.10
2016,04,10,04,56,9.10
2016,04,10,04,57,9.10
2016,04,10,04,58,9.10
2016,04,10,04,59,9.10
2016,04,10,05,00,9.10
2016,04,10,05,01,9.10
2016,04,10,05,02,9.10
2016,04,10,05,03,9.10
2016,04,10,05,04,9.10
2016,04,10,05,05,9.10
2016,04,10,05,06,9.20
2016,04,10,05,07,9.20
2016,04,10,05,08,9.20
2016,04,10,05,09,9.20
2016,04,10,05,10,9.20
2016,04,10,05,11,9.20
2016,04,10,05,12,9.20
2016,04,10,05,13,9.20
2016,04,10,05,14,9.20
2016,04,10,05,15,9.20
2016,04,10,05,16,9.20
2016,04,10,05,17,9.30
2016,04,10,05,18,9.30
2016,04,10,05,19,9.30
2016,04,10,05,20,9.30
2016,04,10,05,21,9.30
2016,04,10,05,22,9.30
2016,04,10,05,23,9.30
2016,04,10,05,24,9.30
2016,04,10,05,25,9.30
2016,04,10,05,26,9.30
2016,04,10,05,27,9.30
2016,04,10,05,28,9.30
2016,04,10,05,29,9.30
2016,04,10,05,30,9.20
2016,04,10,05,31,9.20
2016,04,10,05,32,9.20
2016,04,10,05,33,9.20
2016,04,10,05,34,9.20
2016,04,10,05,35,9.20
2016,04,10,05,36,9.20
2016,04,10,05,37,9.20
2016,04,10,05,38,9.20
2016,04,10,05,39,9.20
2016,04,10,05,40,9.20
2016,04,10,05,41,9.20
2016,04,10,05,42,9.20
2016,04,10,05,43,9.20
2016,04,10,05,44,9.20
2016,04,10,05,45,9.20
2016,04,10,05,46,9.20
2016,04,10,05,47,9.20
2016,04,10,05,48,9.20
2016,04,10,05,49,9.20
2016,04,10,05,50,9.20
2016,04,10,05,51,9.10
2016,04,10,05,52,9.10
2016,04,10,05,53,9.10
2016,04,10,05,54,9.10
2016,04,10,05,55,9.10
2016,04,10,05,56,9.10
2016,04,10,05,57,9.10
2016,04,10,05,58,9.10
2016,04,10,05,59,9.10
2016,04,10,06,00,9.10
2016,04,10,06,01,9.10
2016,04,10,06,02,9.10
2016,04,10,06,03,9.10
2016,04,10,06,04,9.10
2016,04,10,06,05,9.10
2016,04,10,06,06,9.10
2016,04,10,06,07,9.10
2016,04,10,06,08,9.00
2016,04,10,06,09,9.00
2016,04,10,06,10,9.00
2016,04,10,06,11,9.00
2016,04,10,06,12,9.00
2016,04,10,06,13,9.00
2016,04,10,06,14,9.00
2016,04,10,06,15,9.00
2016,04,10,06,16,8.90
2016,04,10,06,17,8.90
2016,04,10,06,18,8.90
2016,04,10,06,19,8.90
2016,04,10,06,20,8.90
2016,04,10,06,21,8.90
2016,04,10,06,22,8.90
2016,04,10,06,23,8.90
2016,04,10,06,24,8.90
2016,04,10,06,25,8.90
2016,04,10,06,26,8.90
2016,04,10,06,27,8.90
2016,04,10,06,28,8.90
2016,04,10,06,29,8.90
2016,04,10,06,30,8.90
2016,04,10,06,31,8.90
2016,04,10,06,32,8.90
2016,04,10,06,33,8.90
2016,04,10,06,34,8.90
2016,04,10,06,35,8.90
2016,04,10,06,36,8.90
2016,04,10,06,37,8.90
2016,04,10,06,38,8.90
2016,04,10,06,39,8.90
2016,04,10,06,40,8.90
2016,04,10,06,41,8.90
2016,04,10,06,42,8.90
2016,04,10,06,43,8.90
2016,04,10,06,44,8.90
2016,04,10,06,45,8.90
2016,04,10,06,46,8.90
2016,04,10,06,47,8.90
2016,04,10,06,48,8.90
2016,04,10,06,49,8.90
2016,04,10,06,50,8.90
2016,04,10,06,51,8.90
2016,04,10,06,52,8.90
2016,04,10,06,53,8.90
2016,04,10,06,54,8.90
2016,04,10,06,55,8.90
2016,04,10,06,56,8.90
2016,04,10,06,57,8.90
2016,04,10,06,58,8.90
2016,04,10,06,59,8.90
2016,04,10,07,00,8.90
2016,04,10,07,01,8.90
2016,04,10,07,02,8.90
2016,04,10,07,03,8.90
2016,04,10,07,04,8.90
2016,04,10,07,05,8.90
2016,04,10,07,06,8.90
2016,04,10,07,07,8.90
2016,04,10,07,08,9.00
2016,04,10,07,09,9.00
2016,04,10,07,10,9.00
2016,04,10,07,11,9.00
2016,04,10,07,12,9.00
2016,04,10,07,13,9.00
2016,04,10,07,14,9.00
2016,04,10,07,15,9.00
2016,04,10,07,16,9.00
2016,04,10,07,17,9.00
2016,04,10,07,18,9.00
2016,04,10,07,19,9.00
2016,04,10,07,20,9.00
2016,04,10,07,21,9.00
2016,04,10,07,22,9.00
2016,04,10,07,23,9.00
2016,04,10,07,24,9.00
2016,04,10,07,25,9.00
2016,04,10,07,26,9.00
2016,04,10,07,27,9.00
2016,04,10,07,28,9.00
2016,04,10,07,29,9.00
2016,04,10,07,30,9.00
2016,04,10,07,31,9.00
2016,04,10,07,32,9.00
2016,04,10,07,33,9.00
2016,04,10,07,34,9.00
2016,04,10,07,35,9.00
2016,04,10,07,36,9.00
2016,04,10,07,37,9.00
2016,04,10,07,38,9.00
2016,04,10,07,39,9.00
2016,04,10,07,40,9.00
2016,04,10,07,41,9.10
2016,04,10,07,42,9.10
2016,04,10,07,43,9.10
2016,04,10,07,44,9.10
2016,04,10,07,45,9.10
2016,04,10,07,46,9.10
2016,04,10,07,47,9.10
2016,04,10,07,48,9.10
2016,04,10,07,49,9.10
2016,04,10,07,50,9.10
2016,04,10,07,51,9.10
2016,04,10,07,52,9.10
2016,04,10,07,53,9.10
2016,04,10,07,54,9.10
2016,04,10,07,55,9.10
2016,04,10,07,56,9.10
2016,04,10,07,57,9.10
2016,04,10,07,58,9.20
2016,04,10,07,59,9.20
2016,04,10,08,00,9.20
2016,04,10,08,01,9.20
2016,04,10,08,02,9.20
2016,04,10,08,03,9.20
2016,04,10,08,04,9.20
2016,04,10,08,05,9.20
2016,04,10,08,06,9.30
2016,04,10,08,07,9.30
2016,04,10,08,08,9.30
2016,04,10,08,09,9.30
2016,04,10,08,10,9.30
2016,04,10,08,11,9.30
2016,04,10,08,12,9.40
2016,04,10,08,13,9.40
2016,04,10,08,14,9.40
2016,04,10,08,15,9.40
2016,04,10,08,16,9.40
2016,04,10,08,17,9.40
2016,04,10,08,18,9.40
2016,04,10,08,19,9.40
2016,04,10,08,20,9.40
2016,04,10,08,21,9.50
2016,04,10,08,22,9.50
2016,04,10,08,23,9.50
2016,04,10,08,24,9.50
2016,04,10,08,25,9.50
2016,04,10,08,26,9.50
2016,04,10,08,27,9.50
2016,04,10,08,28,9.60
2016,04,10,08,29,9.60
2016,04,10,08,30,9.60
2016,04,10,08,31,9.60
2016,04,10,08,32,9.60
2016,04,10,08,33,9.60
2016,04,10,08,34,9.60
2016,04,10,08,35,9.60
2016,04,10,08,36,9.60
2016,04,10,08,37,9.60
2016,04,10,08,38,9.60
2016,04,10,08,39,9.60
2016,04,10,08,40,9.60
2016,04,10,08,41,9.60
2016,04,10,08,42,9.70
2016,04,10,08,43,9.70
2016,04,10,08,44,9.70
2016,04,10,08,45,9.70
2016,04,10,08,46,9.70
2016,04,10,08,47,9.70
2016,04,10,08,48,9.70
2016,04,10,08,49,9.70
2016,04,10,08,50,9.70
2016,04,10,08,51,9.70
2016,04,10,08,52,9.80
2016,04,10,08,53,9.80
2016,04,10,08,54,9.80
2016,04,10,08,55,9.80
2016,04,10,08,56,9.80
2016,04,10,08,57,9.80
2016,04,10,08,58,9.80
2016,04,10,08,59,9.80
2016,04,10,09,00,9.90
2016,04,10,09,01,9.90
2016,04,10,09,02,9.90
2016,04,10,09,03,9.90
2016,04,10,09,04,9.90
2016,04,10,09,05,9.90
2016,04,10,09,06,9.90
2016,04,10,09,07,9.90
2016,04,10,09,08,9.90
2016,04,10,09,09,9.90
2016,04,10,09,10,10.00
2016,04,10,09,11,10.00
2016,04,10,09,12,10.00
2016,04,10,09,13,10.00
2016,04,10,09,14,10.00
2016,04,10,09,15,10.00
2016,04,10,09,16,10.10
2016,04,10,09,17,10.10
2016,04,10,09,18,10.10
2016,04,10,09,19,10.10
2016,04,10,09,20,10.10
2016,04,10,09,21,10.10
2016,04,10,09,22,10.10
2016,04,10,09,23,10.10
2016,04,10,09,24,10.10
2016,04,10,09,25,10.10
2016,04,10,09,26,10.20
2016,04,10,09,27,10.20
2016,04,10,09,28,10.20
2016,04,10,09,29,10.20
2016,04,10,09,30,10.20
2016,04,10,09,31,10.20
2016,04,10,09,32,10.20
2016,04,10,09,33,10.20
2016,04,10,09,34,10.20
2016,04,10,09,35,10.20
2016,04,10,09,36,10.20
2016,04,10,09,37,10.20
2016,04,10,09,38,10.20
2016,04,10,09,39,10.20
2016,04,10,09,40,10.20
2016,04,10,09,41,10.20
2016,04,10,09,42,10.30
2016,04,10,09,43,10.30
2016,04,10,09,44,10.30
2016,04,10,09,45,10.30
2016,04,10,09,46,10.30
2016,04,10,09,47,10.30
2016,04,10,09,48,10.30
2016,04,10,09,49,10.30
2016,04,10,09,50,10.30
2016,04,10,09,51,10.30
2016,04,10,09,52,10.40
2016,04,10,09,53,10.40
2016,04,10,09,54,10.40
2016,04,10,09,55,10.40
2016,04,10,09,56,10.40
2016,04,10,09,57,10.40
2016,04,10,09,58,10.40
2016,04,10,09,59,10.40
2016,04,10,10,00,10.40
2016,04,10,10,01,10.40
2016,04,10,10,02,10.40
2016,04,10,10,03,10.40
2016,04,10,10,04,10.40
2016,04,10,10,05,10.50
2016,04,10,10,06,10.50
2016,04,10,10,07,10.50
2016,04,10,10,08,10.50
2016,04,10,10,09,10.50
2016,04,10,10,10,10.50
2016,04,10,10,11,10.50
2016,04,10,10,12,10.60
2016,04,10,10,13,10.60
2016,04,10,10,14,10.60
2016,04,10,10,15,10.60
2016,04,10,10,16,10.60
2016,04,10,10,17,10.60
2016,04,10,10,18,10.60
2016,04,10,10,19,10.60
2016,04,10,10,20,10.60
2016,04,10,10,21,10.60
2016,04,10,10,22,10.70
2016,04,10,10,23,10.70
2016,04,10,10,24,10.70
2016,04,10,10,25,10.70
2016,04,10,10,26,10.70
2016,04,10,10,27,10.70
2016,04,10,10,28,10.70
2016,04,10,10,29,10.70
2016,04,10,10,30,10.70
2016,04,10,10,31,10.70
2016,04,10,10,32,10.70
2016,04,10,10,33,10.70
2016,04,10,10,34,10.70
2016,04,10,10,35,10.70
2016,04,10,10,36,10.70
2016,04,10,10,37,10.70
2016,04,10,10,38,10.70
2016,04,10,10,39,10.70
2016,04,10,10,40,10.70
2016,04,10,10,41,10.70
2016,04,10,10,42,10.80
2016,04,10,10,43,10.80
2016,04,10,10,44,10.80
2016,04,10,10,45,10.80
2016,04,10,10,46,10.80
2016,04,10,10,47,10.80
2016,04,10,10,48,10.80
2016,04,10,10,49,10.80
2016,04,10,10,50,10.90
2016,04,10,10,51,10.90
2016,04,10,10,52,10.90
2016,04,10,10,53,10.90
2016,04,10,10,54,11.00
2016,04,10,10,55,11.00
2016,04,10,10,56,11.00
2016,04,10,10,57,11.00
2016,04,10,10,58,11.00
2016,04,10,10,59,11.00
2016,04,10,11,00,11.00
2016,04,10,11,01,11.10
2016,04,10,11,02,11.10
2016,04,10,11,03,11.10
2016,04,10,11,04,11.10
2016,04,10,11,05,11.10
2016,04,10,11,06,11.10
2016,04,10,11,07,11.10
2016,04,10,11,08,11.10
2016,04,10,11,09,11.10
2016,04,10,11,10,11.10
2016,04,10,11,11,11.20
2016,04,10,11,12,11.20
2016,04,10,11,13,11.20
2016,04,10,11,14,11.20
2016,04,10,11,15,11.30
2016,04,10,11,16,11.30
2016,04,10,11,17,11.30
2016,04,10,11,18,11.30
2016,04,10,11,19,11.30
2016,04,10,11,20,11.40
2016,04,10,11,21,11.40
2016,04,10,11,22,11.40
2016,04,10,11,23,11.40
2016,04,10,11,24,11.50
2016,04,10,11,25,11.50
2016,04,10,11,26,11.60
2016,04,10,11,27,11.60
2016,04,10,11,28,11.60
2016,04,10,11,29,11.70
2016,04,10,11,30,11.70
2016,04,10,11,31,11.70
2016,04,10,11,32,11.70
2016,04,10,11,33,11.80
2016,04,10,11,34,11.80
2016,04,10,11,35,11.70
2016,04,10,11,36,11.70
2016,04,10,11,37,11.70
2016,04,10,11,38,11.80
2016,04,10,11,39,11.80
2016,04,10,11,40,11.80
2016,04,10,11,41,11.80
2016,04,10,11,42,11.80
2016,04,10,11,43,11.80
2016,04,10,11,44,11.80
2016,04,10,11,45,11.80
2016,04,10,11,46,11.80
2016,04,10,11,47,11.80
2016,04,10,11,48,11.80
2016,04,10,11,49,11.80
2016,04,10,11,50,11.80
2016,04,10,11,51,11.80
2016,04,10,11,52,11.80
2016,04,10,11,53,11.80
2016,04,10,11,54,11.80
2016,04,10,11,55,11.90
2016,04,10,11,56,11.90
2016,04,10,11,57,12.00
2016,04,10,11,58,12.10
2016,04,10,11,59,12.10
2016,04,10,12,00,12.10
2016,04,10,12,01,12.10
2016,04,10,12,02,12.20
2016,04,10,12,03,12.20
2016,04,10,12,04,12.20
2016,04,10,12,05,12.30
2016,04,10,12,06,12.30
2016,04,10,12,07,12.30
2016,04,10,12,08,12.30
2016,04,10,12,09,12.30
2016,04,10,12,10,12.40
2016,04,10,12,11,12.30
2016,04,10,12,12,12.30
2016,04,10,12,13,12.30
2016,04,10,12,14,12.30
2016,04,10,12,15,12.40
2016,04,10,12,16,12.50
2016,04,10,12,17,12.50
2016,04,10,12,18,12.60
2016,04,10,12,19,12.60
2016,04,10,12,20,12.60
2016,04,10,12,21,12.60
2016,04,10,12,22,12.60
2016,04,10,12,23,12.70
2016,04,10,12,24,12.80
2016,04,10,12,25,12.80
2016,04,10,12,26,12.80
2016,04,10,12,27,12.90
2016,04,10,12,28,12.90
2016,04,10,12,29,13.00
2016,04,10,12,30,13.10
2016,04,10,12,31,13.10
2016,04,10,12,32,13.00
2016,04,10,12,33,13.00
2016,04,10,12,34,13.00
2016,04,10,12,35,13.10
2016,04,10,12,36,13.10
2016,04,10,12,37,13.10
2016,04,10,12,38,13.10
2016,04,10,12,39,13.00
2016,04,10,12,40,13.00
2016,04,10,12,41,12.90
2016,04,10,12,42,12.90
2016,04,10,12,43,12.90
2016,04,10,12,44,12.90
2016,04,10,12,45,13.00
2016,04,10,12,46,13.00
2016,04,10,12,47,13.10
2016,04,10,12,48,13.10
2016,04,10,12,49,13.20
2016,04,10,12,50,13.20
2016,04,10,12,51,13.20
2016,04,10,12,52,13.20
2016,04,10,12,53,13.20
2016,04,10,12,54,13.30
2016,04,10,12,55,13.30
2016,04,10,12,56,13.40
2016,04,10,12,57,13.40
2016,04,10,12,58,13.40
2016,04,10,12,59,13.30
2016,04,10,13,00,13.30
2016,04,10,13,01,13.30
2016,04,10,13,02,13.30
2016,04,10,13,03,13.30
2016,04,10,13,04,13.40
2016,04,10,13,05,13.40
2016,04,10,13,06,13.50
2016,04,10,13,07,13.50
2016,04,10,13,08,13.50
2016,04,10,13,09,13.50
2016,04,10,13,10,13.50
2016,04,10,13,11,13.50
2016,04,10,13,12,13.50
2016,04,10,13,13,13.60
2016,04,10,13,14,13.60
2016,04,10,13,15,13.60
2016,04,10,13,16,13.60
2016,04,10,13,17,13.60
2016,04,10,13,18,13.70
2016,04,10,13,19,13.80
2016,04,10,13,20,13.90
2016,04,10,13,21,14.10
2016,04,10,13,22,14.20
2016,04,10,13,23,14.30
2016,04,10,13,24,14.30
2016,04,10,13,25,14.30
2016,04,10,13,26,14.20
2016,04,10,13,27,14.20
2016,04,10,13,28,14.10
2016,04,10,13,29,14.10
2016,04,10,13,30,14.20
2016,04,10,13,31,14.20
2016,04,10,13,32,14.20
2016,04,10,13,33,14.20
2016,04,10,13,34,14.30
2016,04,10,13,35,14.40
2016,04,10,13,36,14.40
2016,04,10,13,37,14.40
2016,04,10,13,38,14.30
2016,04,10,13,39,14.30
2016,04,10,13,40,14.30
2016,04,10,13,41,14.40
2016,04,10,13,42,14.40
2016,04,10,13,43,14.50
2016,04,10,13,44,14.50
2016,04,10,13,45,14.40
2016,04,10,13,46,14.40
2016,04,10,13,47,14.40
2016,04,10,13,48,14.40
2016,04,10,13,49,14.50
2016,04,10,13,50,14.60
2016,04,10,13,51,14.60
2016,04,10,13,52,14.70
2016,04,10,13,53,14.80
2016,04,10,13,54,14.80
2016,04,10,13,55,14.90
2016,04,10,13,56,15.00
2016,04,10,13,57,15.10
2016,04,10,13,58,15.10
2016,04,10,13,59,15.10
2016,04,10,14,00,15.10
2016,04,10,14,01,15.10
2016,04,10,14,02,15.10
2016,04,10,14,03,15.10
2016,04,10,14,04,15.10
2016,04,10,14,05,15.00
2016,04,10,14,06,15.00
2016,04,10,14,07,14.90
2016,04,10,14,08,14.90
2016,04,10,14,09,14.90
2016,04,10,14,10,14.90
2016,04,10,14,11,14.90
2016,04,10,14,12,14.90
2016,04,10,14,13,14.80
2016,04,10,14,14,14.90
2016,04,10,14,15,14.90
2016,04,10,14,16,14.90
2016,04,10,14,17,14.90
2016,04,10,14,18,14.90
2016,04,10,14,19,14.90
2016,04,10,14,20,14.90
2016,04,10,14,21,14.90
2016,04,10,14,22,14.90
2016,04,10,14,23,14.90
2016,04,10,14,24,14.90
2016,04,10,14,25,14.90
2016,04,10,14,26,14.90
2016,04,10,14,27,14.90
2016,04,10,14,28,14.90
2016,04,10,14,29,15.00
2016,04,10,14,30,15.00
2016,04,10,14,31,15.00
2016,04,10,14,32,14.90
2016,04,10,14,33,14.90
2016,04,10,14,34,14.80
2016,04,10,14,35,14.80
2016,04,10,14,36,14.80
2016,04,10,14,37,14.80
2016,04,10,14,38,14.80
2016,04,10,14,39,14.80
2016,04,10,14,40,14.80
2016,04,10,14,41,14.80
2016,04,10,14,42,14.80
2016,04,10,14,43,14.80
2016,04,10,14,44,14.80
2016,04,10,14,45,14.80
2016,04,10,14,46,14.80
2016,04,10,14,47,14.80
2016,04,10,14,48,14.80
2016,04,10,14,49,14.80
2016,04,10,14,50,14.70
2016,04,10,14,51,14.60
2016,04,10,14,52,14.60
2016,04,10,14,53,14.60
2016,04,10,14,54,14.60
2016,04,10,14,55,14.50
2016,04,10,14,56,14.50
2016,04,10,14,57,14.40
2016,04,10,14,58,14.40
2016,04,10,14,59,14.40
2016,04,10,15,00,14.50
2016,04,10,15,01,14.50
2016,04,10,15,02,14.50
2016,04,10,15,03,14.50
2016,04,10,15,04,14.50
2016,04,10,15,05,14.50
2016,04,10,15,06,14.40
2016,04,10,15,07,14.40
2016,04,10,15,08,14.30
2016,04,10,15,09,14.20
2016,04,10,15,10,14.20
2016,04,10,15,11,14.20
2016,04,10,15,12,14.10
2016,04,10,15,13,14.10
2016,04,10,15,14,14.10
2016,04,10,15,15,14.10
2016,04,10,15,16,14.10
2016,04,10,15,17,14.10
2016,04,10,15,18,14.10
2016,04,10,15,19,14.10
2016,04,10,15,20,14.10
2016,04,10,15,21,14.10
2016,04,10,15,22,14.10
2016,04,10,15,23,14.10
2016,04,10,15,24,14.10
2016,04,10,15,25,14.10
2016,04,10,15,26,14.10
2016,04,10,15,27,14.10
2016,04,10,15,28,14.10
2016,04,10,15,29,14.10
2016,04,10,15,30,14.10
2016,04,10,15,31,14.20
2016,04,10,15,32,14.20
2016,04,10,15,33,14.20
2016,04,10,15,34,14.20
2016,04,10,15,35,14.20
2016,04,10,15,36,14.30
2016,04,10,15,37,14.30
2016,04,10,15,38,14.30
2016,04,10,15,39,14.30
2016,04,10,15,40,14.30
2016,04,10,15,41,14.40
2016,04,10,15,42,14.50
2016,04,10,15,43,14.60
2016,04,10,15,44,14.60
2016,04,10,15,45,14.70
2016,04,10,15,46,14.70
2016,04,10,15,47,14.80
2016,04,10,15,48,14.90
2016,04,10,15,49,15.00
2016,04,10,15,50,15.10
2016,04,10,15,51,15.00
2016,04,10,15,52,15.00
2016,04,10,15,53,14.90
2016,04,10,15,54,14.90
2016,04,10,15,55,14.90
2016,04,10,15,56,14.90
2016,04,10,15,57,15.00
2016,04,10,15,58,15.00
2016,04,10,15,59,15.00
2016,04,10,16,00,15.00
2016,04,10,16,01,15.00
2016,04,10,16,02,15.00
2016,04,10,16,03,15.00
2016,04,10,16,04,15.00
2016,04,10,16,05,15.00
2016,04,10,16,06,15.00
2016,04,10,16,07,15.00
2016,04,10,16,08,15.00
2016,04,10,16,09,15.10
2016,04,10,16,10,15.10
2016,04,10,16,11,15.10
2016,04,10,16,12,15.20
2016,04,10,16,13,15.20
2016,04,10,16,14,15.30
2016,04,10,16,15,15.30
2016,04,10,16,16,15.30
2016,04,10,16,17,15.30
2016,04,10,16,18,15.30
2016,04,10,16,19,15.30
2016,04,10,16,20,15.20
2016,04,10,16,21,15.20
2016,04,10,16,22,15.20
2016,04,10,16,23,15.20
2016,04,10,16,24,15.30
2016,04,10,16,25,15.30
2016,04,10,16,26,15.40
2016,04,10,16,27,15.50
2016,04,10,16,28,15.50
2016,04,10,16,29,15.40
2016,04,10,16,30,15.40
2016,04,10,16,31,15.30
2016,04,10,16,32,15.30
2016,04,10,16,33,15.30
2016,04,10,16,34,15.20
2016,04,10,16,35,15.20
2016,04,10,16,36,15.20
2016,04,10,16,37,15.20
2016,04,10,16,38,15.20
2016,04,10,16,39,15.10
2016,04,10,16,40,15.10
2016,04,10,16,41,15.10
2016,04,10,16,42,15.10
2016,04,10,16,43,15.10
2016,04,10,16,44,15.00
2016,04,10,16,45,15.00
2016,04,10,16,46,14.90
2016,04,10,16,47,14.90
2016,04,10,16,48,14.90
2016,04,10,16,49,14.90
2016,04,10,16,50,14.90
2016,04,10,16,51,14.90
2016,04,10,16,52,14.90
2016,04,10,16,53,15.00
2016,04,10,16,54,15.10
2016,04,10,16,55,15.20
2016,04,10,16,56,15.30
2016,04,10,16,57,15.30
2016,04,10,16,58,15.30
2016,04,10,16,59,15.20
2016,04,10,17,00,15.20
2016,04,10,17,01,15.20
2016,04,10,17,02,15.20
2016,04,10,17,03,15.10
2016,04,10,17,04,15.10
2016,04,10,17,05,15.10
2016,04,10,17,06,15.10
2016,04,10,17,07,15.10
2016,04,10,17,08,15.10
2016,04,10,17,09,15.10
2016,04,10,17,10,15.10
2016,04,10,17,11,15.10
2016,04,10,17,12,15.10
2016,04,10,17,13,15.10
2016,04,10,17,14,15.10
2016,04,10,17,15,15.10
2016,04,10,17,16,15.20
2016,04,10,17,17,15.20
2016,04,10,17,18,15.20
2016,04,10,17,19,15.10
2016,04,10,17,20,15.10
2016,04,10,17,21,15.00
2016,04,10,17,22,14.90
2016,04,10,17,23,14.90
2016,04,10,17,24,14.90
2016,04,10,17,25,14.80
2016,04,10,17,26,14.80
2016,04,10,17,27,14.80
2016,04,10,17,28,14.90
2016,04,10,17,29,14.90
2016,04,10,17,30,14.90
2016,04,10,17,31,14.80
2016,04,10,17,32,14.80
2016,04,10,17,33,14.80
2016,04,10,17,34,14.70
2016,04,10,17,35,14.60
2016,04,10,17,36,14.50
2016,04,10,17,37,14.40
2016,04,10,17,38,14.30
2016,04,10,17,39,14.30
2016,04,10,17,40,14.20
2016,04,10,17,41,14.20
2016,04,10,17,42,14.10
2016,04,10,17,43,14.00